Buckeye, AZ

1:37 AM MST on May 27, 2018 (GMT -0700)
Buckeye Municipal

Weather History for KBXK - February, 2014

Change the Weather History Date:

Tuesday, February 4, 2014

  Actual Average (KGYR) Record (KGYR)
Temperature  
Mean Temperature 47 °F -  
Max Temperature 62 °F 66 °F 82 °F (2009)
Min Temperature 32 °F 42 °F 30 °F (2011)
Degree Days  
Heating Degree Days 18    
Moisture  
Dew Point 28 °F    
Average Humidity 48    
Maximum Humidity 69    
Minimum Humidity 30    
Precipitation  
Precipitation 0.00 in - - ()
Sea Level Pressure  
Sea Level Pressure 30.01 in    
Wind  
Wind Speed 4 mph (East)    
Max Wind Speed 13 mph    
Max Gust Speed 20 mph    
Visibility 10 miles    
Events      
Averages and records for this station are not official NWS values.
T = Trace of Precipitation, MM = Missing Value Source: NWS Daily Summary

Daily Weather History Graph

Daily Weather History Graph

Search for Another Location

Airport or City:

Astronomy

Feb. 04, 2014 Rise Set
Actual Time 7:24 AM MST 6:05 PM MST
Civil Twilight 6:58 AM MST 6:31 PM MST
Nautical Twilight 6:29 AM MST 7:00 PM MST
Astronomical Twilight 5:59 AM MST 7:29 PM MST
Moon 10:23 AM MST (2/4) 11:43 PM MST (2/4)
Length of Visible Light 11h 32m
Length of Day
10h 40m
Waxing Crescent, 29% of the Moon is Illuminated
Feb 4
Waxing Crescent
Feb 6
First Quarter
Feb 14
Full
Feb 22
Last Quarter
Mar 1
New

Hourly Weather History & Observations

Time (MST) Temp. Windchill Dew Point Humidity Pressure Visibility Wind Dir Wind Speed Gust Speed Precip Events Conditions
12:15 AM 41.0 °F 36.4 °F 19.4 °F 42% 29.92 in 10.0 mi North 6.9 mph - N/A   Clear
12:35 AM 39.2 °F 37.0 °F 19.4 °F 45% 29.93 in 10.0 mi North 3.5 mph - N/A   Clear
12:55 AM 39.2 °F 37.0 °F 19.4 °F 45% 29.93 in 10.0 mi North 3.5 mph - N/A   Mostly Cloudy
1:15 AM 39.2 °F - 21.2 °F 49% 29.94 in 10.0 mi Calm Calm - N/A   Mostly Cloudy
1:35 AM 37.4 °F 33.8 °F 19.4 °F 48% 29.94 in 10.0 mi North 4.6 mph - N/A   Mostly Cloudy
1:55 AM 37.4 °F 34.9 °F 21.2 °F 52% 29.94 in 10.0 mi North 3.5 mph - N/A   Scattered Clouds
2:15 AM 37.4 °F 34.9 °F 23.0 °F 56% 29.94 in 10.0 mi NE 3.5 mph - N/A   Clear
2:35 AM 37.4 °F - 23.0 °F 56% 29.95 in 10.0 mi Calm Calm - N/A   Clear
2:55 AM 35.6 °F 31.7 °F 23.0 °F 60% 29.95 in 10.0 mi NNW 4.6 mph - N/A   Clear
3:15 AM 35.6 °F 30.7 °F 21.2 °F 56% 29.95 in 10.0 mi North 5.8 mph - N/A   Clear
3:35 AM 35.6 °F - 23.0 °F 60% 29.96 in 10.0 mi Calm Calm - N/A   Clear
3:55 AM 35.6 °F - 23.0 °F 60% 29.96 in 10.0 mi Calm Calm - N/A   Clear
4:15 AM 35.6 °F - 23.0 °F 60% 29.96 in 10.0 mi Calm Calm - N/A   Clear
4:35 AM 33.8 °F - 21.2 °F 60% 29.97 in 10.0 mi Calm Calm - N/A   Clear
4:55 AM 33.8 °F 30.8 °F 23.0 °F 65% 29.98 in 10.0 mi ENE 3.5 mph - N/A   Clear
5:15 AM 33.8 °F 29.6 °F 23.0 °F 65% 29.98 in 10.0 mi ENE 4.6 mph - N/A   Partly Cloudy
5:35 AM 37.4 °F 32.1 °F 24.8 °F 60% 29.97 in 10.0 mi ENE 6.9 mph - N/A   Clear
5:55 AM 37.4 °F 32.8 °F 24.8 °F 60% 29.98 in 10.0 mi East 5.8 mph - N/A   Clear
6:15 AM 35.6 °F - 24.8 °F 65% 29.99 in 10.0 mi Calm Calm - N/A   Clear
6:35 AM 35.6 °F 31.7 °F 24.8 °F 65% 30.00 in 10.0 mi ENE 4.6 mph - N/A   Clear
6:55 AM 33.8 °F - 23.0 °F 65% 30.01 in 10.0 mi Calm Calm - N/A   Clear
7:15 AM 32.0 °F - 23.0 °F 69% 30.01 in 9.0 mi Calm Calm - N/A   Clear
7:35 AM 32.0 °F - 23.0 °F 69% 30.01 in 8.0 mi Calm Calm - N/A   Clear
7:55 AM 32.0 °F 28.7 °F 23.0 °F 69% 30.02 in 8.0 mi NW 3.5 mph - N/A   Clear
8:15 AM 35.6 °F - 23.0 °F 60% 30.04 in 10.0 mi Calm Calm - N/A   Clear
8:35 AM 39.2 °F - 24.8 °F 56% 30.04 in 8.0 mi Calm Calm - N/A   Clear
8:55 AM 41.0 °F - 24.8 °F 53% 30.05 in 10.0 mi Calm Calm - N/A   Clear
9:15 AM 44.6 °F - 24.8 °F 46% 30.06 in 10.0 mi Calm Calm - N/A   Clear
9:35 AM 44.6 °F - 28.4 °F 53% 30.07 in 10.0 mi Calm Calm - N/A   Clear
9:55 AM 48.2 °F - 30.2 °F 50% 30.07 in 10.0 mi ESE 5.8 mph - N/A   Clear
10:15 AM 50.0 °F - 28.4 °F 43% 30.08 in 10.0 mi ESE 5.8 mph - N/A   Clear
10:35 AM 51.8 °F - 28.4 °F 41% 30.08 in 10.0 mi SE 5.8 mph - N/A   Clear
10:55 AM 51.8 °F - 30.2 °F 44% 30.08 in 10.0 mi South 4.6 mph - N/A   Clear
11:15 AM 53.6 °F - 32.0 °F 44% 30.08 in 10.0 mi SE 4.6 mph - N/A   Clear
11:35 AM 53.6 °F - 32.0 °F 44% 30.08 in 10.0 mi ESE 3.5 mph - N/A   Clear
11:55 AM 53.6 °F - 32.0 °F 44% 30.08 in 10.0 mi South 4.6 mph - N/A   Clear
12:15 PM 55.4 °F - 32.0 °F 41% 30.07 in 10.0 mi South 5.8 mph - N/A   Clear
12:35 PM 55.4 °F - 32.0 °F 41% 30.06 in 10.0 mi SSW 5.8 mph - N/A   Clear
12:55 PM 57.2 °F - 32.0 °F 38% 30.05 in 10.0 mi South 4.6 mph - N/A   Clear
1:15 PM 57.2 °F - 32.0 °F 38% 30.04 in 10.0 mi WSW 4.6 mph - N/A   Clear
1:35 PM 59.0 °F - 32.0 °F 36% 30.03 in 10.0 mi South 4.6 mph - N/A   Clear
1:55 PM 59.0 °F - 32.0 °F 36% 30.01 in 10.0 mi SSE 4.6 mph 19.6 mph N/A   Clear
2:15 PM 60.8 °F - 32.0 °F 34% 30.01 in 10.0 mi SW 8.1 mph - N/A   Clear
2:35 PM 62.6 °F - 32.0 °F 32% 30.00 in 10.0 mi SW 12.7 mph 19.6 mph N/A   Scattered Clouds
2:55 PM 59.0 °F - 32.0 °F 36% 30.00 in 10.0 mi WSW 12.7 mph - N/A   Mostly Cloudy
3:15 PM 62.6 °F - 30.2 °F 30% 30.00 in 10.0 mi SW 9.2 mph 16.1 mph N/A   Mostly Cloudy
3:35 PM 60.8 °F - 32.0 °F 34% 29.99 in 10.0 mi SSW 9.2 mph - N/A   Clear
3:55 PM 60.8 °F - 30.2 °F 31% 29.99 in 10.0 mi SSW 11.5 mph - N/A   Partly Cloudy
4:15 PM 60.8 °F - 30.2 °F 31% 29.99 in 10.0 mi SSW 10.4 mph - N/A   Clear
4:35 PM 60.8 °F - 30.2 °F 31% 29.99 in 10.0 mi SW 5.8 mph - N/A   Clear
5:15 PM 59.0 °F - 32.0 °F 36% 29.99 in 10.0 mi WSW 6.9 mph - N/A   Clear
5:35 PM 57.2 °F - 32.0 °F 38% 30.00 in 9.0 mi SSW 4.6 mph - N/A   Clear
5:55 PM 57.2 °F - 32.0 °F 38% 30.00 in 10.0 mi SW 3.5 mph - N/A   Scattered Clouds
6:15 PM 55.4 °F - 32.0 °F 41% 30.00 in 10.0 mi Calm Calm - N/A   Mostly Cloudy
6:35 PM 55.4 °F - 32.0 °F 41% 30.00 in 8.0 mi Calm Calm - N/A   Overcast
6:55 PM 53.6 °F - 32.0 °F 44% 30.01 in 10.0 mi SE 3.5 mph - N/A   Overcast
7:15 PM 53.6 °F - 32.0 °F 44% 30.01 in 10.0 mi Calm Calm - N/A   Overcast
7:35 PM 53.6 °F - 32.0 °F 44% 30.01 in 10.0 mi Calm Calm - N/A   Overcast
7:55 PM 50.0 °F - 32.0 °F 50% 30.02 in 10.0 mi Calm Calm - N/A   Mostly Cloudy
8:15 PM 50.0 °F - 32.0 °F 50% 30.01 in 10.0 mi NNE 3.5 mph - N/A   Mostly Cloudy
8:35 PM 50.0 °F - 30.2 °F 47% 30.02 in 10.0 mi NE 4.6 mph - N/A   Mostly Cloudy
8:55 PM 50.0 °F - 32.0 °F 50% 30.02 in 10.0 mi NE 4.6 mph - N/A   Overcast
9:15 PM 50.0 °F - 32.0 °F 50% 30.03 in 10.0 mi NE 3.5 mph - N/A   Overcast
9:35 PM 48.2 °F - 30.2 °F 50% 30.03 in 10.0 mi NNE 4.6 mph - N/A   Overcast
9:55 PM 48.2 °F - 30.2 °F 50% 30.04 in 10.0 mi NNE 3.5 mph - N/A   Overcast
10:15 PM 48.2 °F - 30.2 °F 50% 30.04 in 10.0 mi NNE 4.6 mph - N/A   Overcast
10:35 PM 48.2 °F - 30.2 °F 50% 30.04 in 10.0 mi NNE 4.6 mph - N/A   Overcast
10:55 PM 48.2 °F - 30.2 °F 50% 30.05 in 10.0 mi NNE 5.8 mph - N/A   Overcast
11:15 PM 50.0 °F - 32.0 °F 50% 30.05 in 10.0 mi East 5.8 mph - N/A   Overcast
11:35 PM 50.0 °F - 32.0 °F 50% 30.05 in 10.0 mi ENE 4.6 mph - N/A   Overcast
11:55 PM 50.0 °F - 32.0 °F 50% 30.05 in 10.0 mi ENE 4.6 mph - N/A   Overcast